Portada
METAR-TAF:

METAR-TAF

Aeroports :

Mildura, Austràlia

latitud: 34-13-45S, longitud: 142-05-08E, altitud: 51 m

Observació

L'informe es va fer fa 15 minuts, a les 17:00 UTC
Vent 4 kt del Sud
Temperatura 15°C
Humitat 88%
Pressió 1018 hPa
Visibilitat 10 km o més
Núvols disperses a una alçada de 6500 ft
Cel cobert a una alçada de 9300 ft

METAR: YMIA 081700Z AUTO 18004KT 9999 // SCT065 OVC093 15/13 Q1018

Hora: 03:15 (17:15 UTC)


TAF: manca

Observacions i pronòstics meteorològics de més de 4000 aeroports (METAR i TAF).

Les estacions disponibles són els punts grocs i vermells al mapa.

Posi el ratolí al punt desitjat per veure el nom de l'estació.

Feu clic per veure les observacions i els pronòstics meteorològics.

Per canviar el mapa: feu clic els botons verds amb una creu de color negre per apropar; al botó verd amb un guió per allunyar la imatge; o en les fletxes verdes per a mapes adjacents.


METAR-TAF: